Powrót do katalogu

EXPLORER 11

AktywnyNaukaLEO
NORAD 107·PAYLOAD·🇺🇸 United States

Wystrzelony Apr 27, 1961 z Cape Canaveral Space Force Station

Loading…

Następne Przeloty (najbliższe 24 godziny)

TLE

ŚwieżeSource: Space-Track

Epoka: Sep 14, 2026, 10:30 UTC

1 00107U 61013A   26257.43768438  .00000979  00000-0  98058-4 0  9993
2 00107  28.7765 161.6422 0491765 242.2843 112.7015 14.22492443289218

Śledź EXPLORER 11 w czasie rzeczywistym z AllMySat

Download on the App Store